This is the latest recevied weather packets stored in our database for station/object DC1MPP-9. If no packets are shown the sender has not sent any weather packets the latest 10 day(s).
| Time | Temp. | Humidity | Pressure | Rain* | Wind** | Luminosity | Snow |
|---|---|---|---|---|---|---|---|
| 1787760526 | 27.22° C | 61% | 959 hPa | - | - | - | - |
| 1787760285 | 27.78° C | 64% | 959 hPa | - | - | - | - |
| 1787760044 | 27.78° C | 62% | 959 hPa | - | - | - | - |
| 1787759803 | 27.78° C | 56% | 959 hPa | - | - | - | - |
| 1787759321 | 27.78° C | 56% | 959 hPa | - | - | - | - |
| 1787759080 | 27.78° C | 58% | 959 hPa | - | - | - | - |
| 1787758839 | 27.78° C | 58% | 959 hPa | - | - | - | - |
| 1787758598 | 27.78° C | 57% | 959 hPa | - | - | - | - |
| 1787758116 | 28.33° C | 60% | 959 hPa | - | - | - | - |
| 1787757875 | 27.78° C | 61% | 959 hPa | - | - | - | - |
| 1787757634 | 27.78° C | 58% | 959 hPa | - | - | - | - |
| 1787757152 | 27.78° C | 58% | 959 hPa | - | - | - | - |
| 1787756910 | 28.33° C | 56% | 960 hPa | - | - | - | - |
| 1787756669 | 28.33° C | 57% | 959 hPa | - | - | - | - |
| 1787756187 | 28.33° C | 58% | 960 hPa | - | - | - | - |
| 1787755705 | 28.33° C | 57% | 960 hPa | - | - | - | - |
| 1787755464 | 28.89° C | 53% | 960 hPa | - | - | - | - |
| 1787755223 | 28.89° C | 51% | 960 hPa | - | - | - | - |
| 1787754982 | 28.33° C | 52% | 960 hPa | - | - | - | - |
| 1787754741 | 28.89° C | 55% | 960 hPa | - | - | - | - |
| 1787754500 | 28.89° C | 53% | 959 hPa | - | - | - | - |
| 1787754259 | 29.44° C | 55% | 960 hPa | - | - | - | - |
| 1787754018 | 28.89° C | 57% | 959 hPa | - | - | - | - |
| 1787753776 | 28.89° C | 52% | 960 hPa | - | - | - | - |
| 1787753535 | 29.44° C | 50% | 960 hPa | - | - | - | - |
* Rain since midnight (hover to see other rain measurements)
** Current wind speed in m/s (hover to see current wind gust speed)